Regional Weather Roundup
Issued by NWS

Home | Current Version | Previous Version | Graphics & Text | Print | Product List | Glossary On
Versions: 1 2 3 4 5 6 7 8 9 10 11 12 13 14 15 16 17 18 19 20 21 22 23 24 25 26 27 28 29 30 31 32 33 34 35 36 37 38 39 40 41 42 43 44 45 46 47 48 49 50
633
ASUS44 KLIX 210205
RWRLA
LOUISIANA WEATHER ROUNDUP
NATIONAL WEATHER SERVICE NEW ORLEANS LA
900 PM CDT WED AUG 20 2014

NOTE: "FAIR" INDICATES FEW OR NO CLOUDS BELOW 12,000 FEET WITH NO
      SIGNIFICANT WEATHER AND/OR OBSTRUCTIONS TO VISIBILITY.
      SKY/WX - SKY CONDITION AND SIGNIFICANT WEATHER.
      TMP - AIR TEMPERATURE.    DP   - DEWPOINT TEMPERATURE.
      RH  - RELATIVE HUMIDITY.  PRES - PRESSURE.
      HX  - HEAT INDEX.         WCI  - WIND CHILL INDEX.

*  THESE STATIONS ARE NOT NWS OR FAA STATIONS AND ARE NOT UNDER
   NWS QUALITY CONTROL.

LAZ040-048-061>063-065-066-069-210300-
SOUTHEAST LOUISIANA

CITY           SKY/WX    TMP DP  RH WIND       PRES   REMARKS
N.O. AUDUBON     N/A     79  76  90 MISG        N/A
N.O. INTL ARPT MOCLDY    80  71  74 SW7       30.07R
N.O. LAKEFRONT MOCLDY    82  75  79 SW6       30.08R
N.O. DOWNTOWN* FAIR      82  70  65 S3        30.09R
SLIDELL        MOCLDY    83  74  74 CALM      30.07R
BATON ROUGE    CLOUDY    79  74  84 S3        30.07S
BOOTHVILLE     PTCLDY    85  76  74 SW6       30.08R
BELLE CHASSE   MOCLDY    80  73  79 CALM      30.08R
BOGALUSA*      FAIR      82  74  76 CALM      30.09R
GALLIANO*      NOT AVBL
NEW ROADS*     FAIR      76  74  95 CALM      30.07R
GONZALES*      FAIR      76  76 100 CALM      30.06F
HAMMOND*       MOCLDY    77  72  83 CALM      30.10R
HOUMA*         CLOUDY    76  73  87 CALM      30.07S
PORT FOURCHON* CLEAR     86  77  74 S5        30.09R HX  97

$$

LAZ041-044-053-054-210300-
SOUTHWEST LOUISIANA

CITY           SKY/WX    TMP DP  RH WIND       PRES   REMARKS
LAKE CHARLES   CLOUDY    78  73  84 SE7       30.02F
LAFAYETTE      CLOUDY    78  75  90 CALM      30.05S
PATTERSON      CLOUDY   N/A N/A N/A MISG        N/A
SALT POINT       N/A     81  77  88 CALM      30.05F
NEW IBERIA     CLOUDY    80  76  87 E5        30.06S
CHENAULT AIRPK CLEAR     79  72  78 SE5       30.03F

$$

LAZ027-028-210300-
CENTRAL LOUISIANA

CITY           SKY/WX    TMP DP  RH WIND       PRES   REMARKS
FORT POLK      CLOUDY    75  73  93 SE3       30.02F
ALEXANDRIA INT CLOUDY    77  72  84 SE7       30.01S
ALEXANDRIA     CLOUDY    77  73  87 S3        30.03F

$$

LAZ001-002-210300-
NORTHWEST LOUISIANA

CITY           SKY/WX    TMP DP  RH WIND       PRES   REMARKS
SHREVEPORT     PTCLDY    80  67  64 S6        29.99S
BARKSDALE AFB  PTCLDY    78  67  68 SE7       29.99S
DTN SHREVEPORT CLEAR     81  68  64 SE9       29.98F

$$

LAZ014-016-210300-
NORTHEAST LOUISIANA

CITY           SKY/WX    TMP DP  RH WIND       PRES   REMARKS
MONROE         PTCLDY    83  73  72 S7        30.00F
TALLULAH       PTCLDY    76  73  91 SW3       30.02R

$$




USA.gov is the U.S. government's official web portal to all federal, state and local government web resources and services.